Mountain Home AFB, ID

3:58 PM MST on February 21, 2017 (GMT -0700)
Mountain Home Air Force Base

Weather History for KMUO - November, 2013

Change the Weather History Date:

Sunday, November 3, 2013

  Actual Average Record
Temperature  
Mean Temperature 35 °F 44 °F  
Max Temperature 45 °F 56 °F 73 °F (1978)
Min Temperature 25 °F 31 °F 5 °F (1936)
Degree Days  
Heating Degree Days 30 21  
Month to date heating degree days 60 61  
Cooling Degree Days 0 0  
Month to date cooling degree days 0 0  
Moisture  
Dew Point 26 °F    
Average Humidity 62    
Maximum Humidity 100    
Minimum Humidity 39    
Precipitation  
Precipitation T in 0.04 in 0.41 in (1988)
Month to date precipitation T 0.11  
Sea Level Pressure  
Sea Level Pressure 30.03 in    
Wind  
Wind Speed 11 mph (NW)    
Max Wind Speed 23 mph    
Max Gust Speed 36 mph    
Visibility 10 miles    
Events Rain , Snow    
T = Trace of Precipitation, MM = Missing Value Source: NWS Daily Summary

Daily Weather History Graph

Daily Weather History Graph

Search for Another Location

Airport or City:

Trip Planner

Search our weather history database for the weather conditions in past years. The results will help you decide how hot, cold, wet, or windy it might be!

Date:

Astronomy

Nov. 03, 2013 Rise Set
Actual Time 7:21 AM MST 5:32 PM MST
Civil Twilight 6:51 AM MST 6:02 PM MST
Nautical Twilight 6:17 AM MST 6:35 PM MST
Astronomical Twilight 5:44 AM MST 7:08 PM MST
Moon 7:30 AM MST (11/3) 5:49 PM MST (11/3)
Length of Visible Light 11h 10m
Length of Day
10h 11m
New Moon, 0% of the Moon is Illuminated
Nov 3
New Moon
Nov 9
First Quarter
Nov 17
Full
Nov 25
Last Quarter
Dec 2
New

Hourly Weather History & Observations

Time (MST) Temp. Windchill Dew Point Humidity Pressure Visibility Wind Dir Wind Speed Gust Speed Precip Events Conditions
12:58 AM 40.3 °F 32.2 °F 24.3 °F 53% 29.94 in 10.0 mi West 15.0 mph - N/A   Mostly Cloudy
1:58 AM 36.3 °F 28.0 °F 24.3 °F 62% 29.96 in 10.0 mi West 12.7 mph - N/A   Clear
1:43 AM 35.6 °F 27.5 °F 24.8 °F 65% 29.95 in 10.0 mi West 11.5 mph - N/A   Mostly Cloudy
1:58 AM 35.6 °F 27.1 °F 24.3 °F 63% 29.95 in 10.0 mi WNW 12.7 mph - N/A   Overcast
2:18 AM 35.6 °F 27.1 °F 24.8 °F 65% 29.96 in 10.0 mi WNW 12.7 mph - N/A   Scattered Clouds
2:58 AM 31.6 °F 23.7 °F 23.4 °F 71% 29.97 in 10.0 mi WNW 9.2 mph - N/A   Clear
3:58 AM 30.9 °F 22.2 °F 22.5 °F 71% 29.98 in 10.0 mi West 10.4 mph - N/A   Clear
4:58 AM 29.8 °F - 22.3 °F 73% 30.00 in 10.0 mi Calm Calm - N/A   Clear
9:13 AM 33.8 °F 25.3 °F 32.0 °F 93% 30.02 in 2.0 mi NW 11.5 mph - N/A Snow Light Snow
9:18 AM 32.0 °F 23.6 °F 32.0 °F 100% 30.02 in 3.0 mi NW 10.4 mph - N/A Snow Light Snow
9:27 AM 32.0 °F 23.6 °F 32.0 °F 100% 30.02 in 10.0 mi NW 10.4 mph - N/A Rain Light Freezing Rain
9:56 AM 35.6 °F 29.9 °F 32.0 °F 87% 30.02 in 10.0 mi West 6.9 mph - N/A   Overcast
9:58 AM 35.2 °F 30.3 °F 32.9 °F 91% 30.05 in 10.0 mi West 5.8 mph - 0.00 in   Overcast
10:38 AM 37.4 °F 29.3 °F 30.2 °F 75% 30.02 in 10.0 mi NW 12.7 mph - N/A   Mostly Cloudy
10:48 AM 39.2 °F 32.5 °F 28.4 °F 65% 30.02 in 10.0 mi NW 10.4 mph - N/A   Mostly Cloudy
10:58 AM 39.7 °F 32.3 °F 29.5 °F 67% 30.05 in 10.0 mi NW 12.7 mph - N/A   Mostly Cloudy
11:08 AM 41.0 °F 33.5 °F 28.4 °F 61% 30.03 in 10.0 mi WNW 13.8 mph - N/A   Mostly Cloudy
11:58 AM 41.5 °F 34.6 °F 25.7 °F 53% 30.06 in 10.0 mi WNW 12.7 mph - N/A   Overcast
12:03 PM 41.0 °F 34.7 °F 24.8 °F 53% 30.03 in 10.0 mi NW 10.4 mph - N/A   Overcast
12:08 PM 41.0 °F 34.7 °F 26.6 °F 57% 30.03 in 10.0 mi NNW 10.4 mph - N/A   Overcast
12:43 PM 41.0 °F 34.3 °F 28.4 °F 61% 30.02 in 10.0 mi NNW 11.5 mph 17.3 mph N/A Rain Light Rain
12:48 PM 41.0 °F 34.7 °F 28.4 °F 61% 30.02 in 10.0 mi NNW 10.4 mph - N/A Rain Light Rain
12:53 PM 41.0 °F 35.2 °F 28.4 °F 61% 30.02 in 10.0 mi NNW 9.2 mph - N/A   Mostly Cloudy
12:58 PM 40.8 °F 32.9 °F 28.8 °F 62% 30.06 in 10.0 mi NNW 15.0 mph 19.6 mph 0.00 in Rain Light Rain
1:13 PM 42.8 °F 33.5 °F 26.6 °F 53% 30.01 in 10.0 mi NNW 23.0 mph 28.8 mph N/A   Scattered Clouds
1:28 PM 39.2 °F 31.2 °F 26.6 °F 61% 30.01 in 10.0 mi NW 13.8 mph - N/A   Mostly Cloudy
1:33 PM 41.0 °F 32.5 °F 24.8 °F 53% 30.01 in 10.0 mi NW 17.3 mph - N/A   Scattered Clouds
1:58 PM 43.2 °F 35.0 °F 21.4 °F 42% 30.05 in 10.0 mi NW 18.4 mph - 0.00 in   Partly Cloudy
2:18 PM 42.8 °F 35.8 °F 24.8 °F 49% 30.01 in 7.0 mi West 13.8 mph 35.7 mph N/A   Mostly Cloudy
2:25 PM 42.8 °F 35.1 °F 21.2 °F 42% 30.01 in 10.0 mi NW 16.1 mph 26.5 mph N/A   Mostly Cloudy
2:35 PM 42.8 °F 35.1 °F 28.4 °F 57% 30.01 in 10.0 mi North 16.1 mph 26.5 mph N/A   Scattered Clouds
2:58 PM 41.7 °F 34.8 °F 24.6 °F 51% 30.06 in 10.0 mi WNW 12.7 mph - 0.00 in   Scattered Clouds
3:03 PM 42.8 °F 35.1 °F 23.0 °F 46% 30.02 in 10.0 mi WNW 16.1 mph - N/A Rain Light Rain
3:13 PM 42.8 °F 35.1 °F 23.0 °F 46% 30.02 in 10.0 mi NW 16.1 mph 21.9 mph N/A Rain Light Rain
3:18 PM 42.8 °F 36.2 °F 23.0 °F 46% 30.02 in 10.0 mi WNW 12.7 mph 21.9 mph N/A   Overcast
3:38 PM 44.6 °F 37.2 °F 21.2 °F 39% 30.02 in 10.0 mi NW 17.3 mph - N/A   Overcast
3:43 PM 44.6 °F 38.4 °F 21.2 °F 39% 30.02 in 10.0 mi WNW 12.7 mph - N/A   Overcast
3:58 PM 43.2 °F 37.9 °F 21.2 °F 42% 30.06 in 10.0 mi WNW 9.2 mph - 0.00 in   Overcast
4:03 PM 42.8 °F 37.0 °F 21.2 °F 42% 30.02 in 10.0 mi WNW 10.4 mph - N/A   Mostly Cloudy
4:13 PM 42.8 °F 38.0 °F 21.2 °F 42% 30.02 in 10.0 mi WNW 8.1 mph - N/A   Mostly Cloudy
4:28 PM 41.0 °F 35.8 °F 26.6 °F 57% 30.02 in 10.0 mi NNE 8.1 mph - N/A   Mostly Cloudy
4:33 PM 41.0 °F 36.4 °F 26.6 °F 57% 30.02 in 10.0 mi North 6.9 mph - N/A   Mostly Cloudy
4:38 PM 41.0 °F 37.1 °F 26.6 °F 57% 30.02 in 10.0 mi North 5.8 mph - N/A   Overcast
4:58 PM 42.1 °F 36.6 °F 24.3 °F 49% 30.06 in 10.0 mi NNW 9.2 mph - N/A   Overcast
5:43 PM 41.0 °F 35.8 °F 24.8 °F 53% 30.02 in 10.0 mi North 8.1 mph - N/A   Overcast
5:58 PM 39.0 °F 34.8 °F 25.9 °F 59% 30.07 in 10.0 mi North 5.8 mph - N/A   Overcast
6:13 PM 39.2 °F 34.2 °F 26.6 °F 61% 30.02 in 10.0 mi North 6.9 mph - N/A   Mostly Cloudy
6:18 PM 37.4 °F 32.8 °F 26.6 °F 65% 30.02 in 10.0 mi North 5.8 mph - N/A   Scattered Clouds
6:58 PM 35.1 °F - 25.9 °F 69% 30.09 in 10.0 mi ENE 1.2 mph - N/A   Partly Cloudy
7:13 PM 32.0 °F 28.7 °F 26.6 °F 80% 30.03 in 10.0 mi ENE 3.5 mph - N/A   Mostly Cloudy
7:43 PM 32.0 °F - 24.8 °F 75% 30.04 in 10.0 mi Calm Calm - N/A   Scattered Clouds
7:58 PM 33.1 °F - 24.8 °F 72% 30.11 in 10.0 mi Calm Calm - N/A   Clear
8:58 PM 27.0 °F 21.6 °F 22.1 °F 82% 30.11 in 10.0 mi SSE 4.6 mph - N/A   Clear
9:58 PM 25.5 °F 21.3 °F 20.3 °F 81% 30.11 in 10.0 mi East 3.5 mph - N/A   Clear
10:58 PM 24.6 °F - 20.5 °F 84% 30.11 in 10.0 mi ENE 2.3 mph - N/A   Mostly Cloudy